Location: Ida Center
(41.8662°N, 83.5713°W)
Time: 07:39:43
(UTC+00:00)

Cosmos 1743 Rocket - Pass Details

Date: 17 November 2019
Orbit: 605 x 632 km, 82.6° (Epoch: 15 December)

Event Time Altitude Azimuth Distance (km) Brightness Sun altitude
Rises 22:43:48 0° 347° (NNW) 2,879 6.9 -6.3°
Reaches altitude 10° 22:46:03 10° 343° (NNW) 1,974 6.1 -6.7°
Maximum altitude 22:50:18 54° 266° (W) 750 4.5 -7.4°
Drops below altitude 10° 22:54:33 10° 189° (S) 1,974 6.5 -8.2°
Sets 22:56:48 0° 185° (S) 2,879 7.3 -8.6°
